TimeCDT,TemperatureF,Dew PointF,Humidity,Sea Level PressureIn,VisibilityMPH,Wind Direction,Wind SpeedMPH,Gust SpeedMPH,PrecipitationIn,Events,Conditions,WindDirDegrees,DateUTC
12:15 AM,47.3,45.1,92,30.22,10.0,Calm,Calm,-,N/A,,Overcast,0,2012-10-08 05:15:00
12:35 AM,47.3,45.3,93,30.22,10.0,North,3.5,-,N/A,,Overcast,10,2012-10-08 05:35:00
12:55 AM,47.5,45.5,93,30.22,10.0,Calm,Calm,-,N/A,,Overcast,0,2012-10-08 05:55:00
1:15 AM,47.7,45.5,92,30.22,10.0,North,5.8,-,N/A,,Overcast,10,2012-10-08 06:15:00
1:35 AM,47.7,45.5,92,30.22,10.0,NNE,3.5,-,N/A,,Overcast,30,2012-10-08 06:35:00
1:55 AM,47.7,45.7,93,30.22,10.0,Calm,Calm,-,N/A,,Overcast,0,2012-10-08 06:55:00
2:15 AM,47.8,45.9,93,30.22,10.0,North,3.5,-,N/A,,Overcast,360,2012-10-08 07:15:00
2:35 AM,47.7,45.9,93,30.22,10.0,Calm,Calm,-,N/A,,Mostly Cloudy,0,2012-10-08 07:35:00
2:55 AM,47.3,45.7,94,30.22,10.0,Calm,Calm,-,N/A,,Mostly Cloudy,0,2012-10-08 07:55:00
3:15 AM,47.3,45.9,95,30.21,10.0,Calm,Calm,-,N/A,,Overcast,0,2012-10-08 08:15:00
3:35 AM,47.7,45.9,93,30.21,10.0,Calm,Calm,-,N/A,,Overcast,0,2012-10-08 08:35:00
3:55 AM,47.8,45.9,93,30.21,10.0,Calm,Calm,-,N/A,,Overcast,0,2012-10-08 08:55:00
4:15 AM,47.8,46.0,93,30.21,10.0,Calm,Calm,-,N/A,,Overcast,0,2012-10-08 09:15:00
4:35 AM,48.0,45.9,92,30.21,10.0,Calm,Calm,-,N/A,,Overcast,0,2012-10-08 09:35:00
4:55 AM,47.5,45.7,93,30.21,10.0,Calm,Calm,-,N/A,,Scattered Clouds,0,2012-10-08 09:55:00
5:15 AM,46.0,45.1,97,30.21,10.0,Calm,Calm,-,N/A,,Clear,0,2012-10-08 10:15:00
5:35 AM,45.3,44.8,98,30.21,10.0,Calm,Calm,-,N/A,,Mostly Cloudy,0,2012-10-08 10:35:00
5:55 AM,45.9,45.1,97,30.22,10.0,Calm,Calm,-,N/A,,Overcast,0,2012-10-08 10:55:00
6:15 AM,46.4,45.3,96,30.22,10.0,Calm,Calm,-,N/A,,Overcast,0,2012-10-08 11:15:00
6:35 AM,46.9,45.0,93,30.22,10.0,Calm,Calm,-,N/A,,Overcast,0,2012-10-08 11:35:00
6:55 AM,47.1,44.2,90,30.22,10.0,Calm,Calm,-,N/A,,Overcast,0,2012-10-08 11:55:00
7:15 AM,47.1,43.0,86,30.24,10.0,Calm,Calm,-,N/A,,Overcast,0,2012-10-08 12:15:00
7:35 AM,46.6,42.3,85,30.24,10.0,Calm,Calm,-,N/A,,Scattered Clouds,0,2012-10-08 12:35:00
7:55 AM,46.0,41.5,84,30.24,10.0,North,3.5,-,N/A,,Clear,350,2012-10-08 12:55:00
8:15 AM,46.4,40.8,81,30.25,10.0,North,3.5,-,N/A,,Clear,360,2012-10-08 13:15:00
8:35 AM,47.3,40.3,77,30.25,10.0,North,3.5,-,N/A,,Clear,360,2012-10-08 13:35:00
8:55 AM,48.9,38.8,68,30.26,10.0,North,5.8,-,N/A,,Clear,360,2012-10-08 13:55:00
9:15 AM,49.8,38.1,64,30.26,10.0,North,3.5,-,N/A,,Clear,360,2012-10-08 14:15:00
9:35 AM,50.9,38.5,62,30.26,10.0,NE,4.6,-,N/A,,Clear,40,2012-10-08 14:35:00
9:55 AM,52.2,38.1,59,30.27,10.0,ENE,4.6,-,N/A,,Clear,70,2012-10-08 14:55:00
10:15 AM,53.1,37.6,56,30.27,10.0,North,4.6,-,N/A,,Clear,10,2012-10-08 15:15:00
10:35 AM,54.0,39.6,58,30.26,10.0,NE,4.6,-,N/A,,Clear,40,2012-10-08 15:35:00
10:55 AM,54.9,39.9,57,30.26,10.0,ENE,4.6,-,N/A,,Clear,70,2012-10-08 15:55:00
11:15 AM,54.9,40.1,58,30.26,10.0,Calm,Calm,-,N/A,,Clear,0,2012-10-08 16:15:00
11:35 AM,55.8,40.6,57,30.25,10.0,Calm,Calm,-,N/A,,Clear,0,2012-10-08 16:35:00
11:55 AM,56.5,41.5,57,30.24,10.0,North,3.5,-,N/A,,Scattered Clouds,350,2012-10-08 16:55:00
12:15 PM,57.0,41.9,57,30.24,10.0,Calm,Calm,-,N/A,,Scattered Clouds,0,2012-10-08 17:15:00
12:55 PM,58.5,41.7,54,30.22,10.0,NNE,3.5,-,N/A,,Clear,30,2012-10-08 17:55:00
1:15 PM,59.2,41.9,53,30.21,10.0,NNE,5.8,-,N/A,,Clear,20,2012-10-08 18:15:00
1:35 PM,60.4,42.6,52,30.20,10.0,North,4.6,-,N/A,,Clear,10,2012-10-08 18:35:00
1:55 PM,60.4,42.4,51,30.19,10.0,NE,5.8,-,N/A,,Clear,50,2012-10-08 18:55:00
2:15 PM,60.8,42.3,50,30.17,10.0,North,3.5,-,N/A,,Clear,360,2012-10-08 19:15:00
2:35 PM,61.5,42.6,50,30.15,10.0,NNE,3.5,-,N/A,,Clear,20,2012-10-08 19:35:00
2:55 PM,62.1,43.0,50,30.14,10.0,SE,4.6,-,N/A,,Clear,130,2012-10-08 19:55:00
3:15 PM,62.8,42.4,47,30.14,10.0,SSE,3.5,-,N/A,,Clear,150,2012-10-08 20:15:00
3:35 PM,63.5,43.0,47,30.13,10.0,ESE,5.8,-,N/A,,Clear,120,2012-10-08 20:35:00
3:55 PM,63.3,41.5,45,30.12,10.0,SSE,6.9,-,N/A,,Clear,150,2012-10-08 20:55:00
4:15 PM,63.9,42.1,45,30.12,10.0,ESE,5.8,-,N/A,,Clear,110,2012-10-08 21:15:00
4:35 PM,64.0,42.4,45,30.11,10.0,ESE,5.8,-,N/A,,Clear,120,2012-10-08 21:35:00
4:55 PM,64.0,42.6,46,30.11,10.0,ENE,3.5,-,N/A,,Clear,60,2012-10-08 21:55:00
5:15 PM,64.2,42.6,45,30.10,10.0,SSE,3.5,-,N/A,,Clear,150,2012-10-08 22:15:00
5:35 PM,64.4,42.8,45,30.10,10.0,Calm,Calm,-,N/A,,Clear,0,2012-10-08 22:35:00
5:55 PM,64.0,42.6,46,30.10,10.0,SE,3.5,-,N/A,,Clear,130,2012-10-08 22:55:00
6:15 PM,63.5,43.2,47,30.10,10.0,ESE,4.6,-,N/A,,Clear,120,2012-10-08 23:15:00
6:35 PM,62.4,43.9,51,30.09,10.0,Calm,Calm,-,N/A,,Clear,0,2012-10-08 23:35:00
6:55 PM,61.2,44.8,55,30.09,10.0,Calm,Calm,-,N/A,,Clear,0,2012-10-08 23:55:00
7:35 PM,56.7,46.4,69,30.09,10.0,Calm,Calm,-,N/A,,Clear,0,2012-10-09 00:35:00
7:55 PM,54.3,46.6,75,30.09,10.0,Calm,Calm,-,N/A,,Clear,0,2012-10-09 00:55:00
8:15 PM,53.2,47.5,81,30.09,10.0,Calm,Calm,-,N/A,,Clear,0,2012-10-09 01:15:00
8:35 PM,52.0,47.3,84,30.10,10.0,Calm,Calm,-,N/A,,Clear,0,2012-10-09 01:35:00
8:55 PM,51.6,46.6,83,30.10,10.0,Calm,Calm,-,N/A,,Clear,0,2012-10-09 01:55:00
9:15 PM,52.2,46.4,81,30.10,10.0,Calm,Calm,-,N/A,,Clear,0,2012-10-09 02:15:00
9:35 PM,53.2,46.2,77,30.11,10.0,Calm,Calm,-,N/A,,Clear,0,2012-10-09 02:35:00
9:55 PM,52.7,46.2,79,30.11,10.0,Calm,Calm,-,N/A,,Clear,0,2012-10-09 02:55:00
10:15 PM,52.7,46.4,79,30.11,10.0,Calm,Calm,-,N/A,,Clear,0,2012-10-09 03:15:00
10:55 PM,51.6,46.0,81,30.10,10.0,Calm,Calm,-,N/A,,Clear,0,2012-10-09 03:55:00
11:35 PM,51.3,45.9,82,30.10,10.0,SE,3.5,-,N/A,,Clear,140,2012-10-09 04:35:00
11:55 PM,51.3,46.0,82,30.10,10.0,Calm,Calm,-,N/A,,Clear,0,2012-10-09 04:55:00